UAE1059 KSFO-KMIA

Flight info

Callsign UAE1059
Flight time N/A
Altitude 38000
Route KSFO SAHEY4 NTELL FRAME DCT LATON DCT PIXEY DCT PONDD DCT DELNO DCT OINKS DCT IRODY DCT TMALE DCT DUPAL DCT KF18Y DCT PRTZY DCT KF12C DCT JILAX DCT DUSON DCT WESOT DCT DTSLF DCT OCHHO DCT ACRAM DEFUN FROGZ5 KMIA
Aircraft A388/J-V/N

Departure

Time N/A
Airport San Francisco International Airport (KSFO)

Arrival

Time 2026-05-04 06:25
Airport Miami International Airport (KMIA)
Time Latitude Longitude Altitude Speed Heading
2026-05-04 02:01 37.23873 -121.09260 30913 ft 467 kts 111°
2026-05-04 02:01 37.22809 -121.05409 31252 ft 473 kts 111°
2026-05-04 02:02 37.21714 -121.01447 31471 ft 483 kts 113°
2026-05-04 02:02 37.20599 -120.97423 31661 ft 492 kts 113°
2026-05-04 02:02 37.19471 -120.93353 32001 ft 497 kts 113°
2026-05-04 02:02 37.18331 -120.89247 32327 ft 503 kts 113°
2026-05-04 02:03 37.17175 -120.85086 32668 ft 508 kts 114°
2026-05-04 02:03 37.16019 -120.80930 33002 ft 513 kts 114°
2026-05-04 02:03 37.14836 -120.76685 33346 ft 519 kts 114°
2026-05-04 02:03 37.13638 -120.72395 33659 ft 524 kts 114°
2026-05-04 02:04 37.12429 -120.68071 33989 ft 530 kts 114°
2026-05-04 02:04 37.11208 -120.63705 34187 ft 537 kts 115°
2026-05-04 02:04 37.09970 -120.59294 34379 ft 543 kts 115°
2026-05-04 02:04 37.08703 -120.54785 34882 ft 543 kts 115°
2026-05-04 02:05 37.07451 -120.50327 35478 ft 541 kts 115°
2026-05-04 02:05 37.06208 -120.45905 36089 ft 537 kts 115°
2026-05-04 02:05 37.04964 -120.41496 36710 ft 534 kts 115°
2026-05-04 02:05 37.03746 -120.37188 37290 ft 532 kts 115°
2026-05-04 02:06 37.02516 -120.32843 37825 ft 531 kts 115°
2026-05-04 02:06 37.01271 -120.28467 37889 ft 539 kts 115°
2026-05-04 02:06 36.98707 -120.19480 37916 ft 559 kts 115°
2026-05-04 02:07 36.96039 -120.10146 37917 ft 579 kts 115°
2026-05-04 02:07 36.93295 -120.00559 38108 ft 591 kts 115°
2026-05-04 02:08 36.91957 -119.95861 39339 ft 571 kts 115°
2026-05-04 02:08 36.90627 -119.91150 39997 ft 562 kts 115°
2026-05-04 02:08 36.89347 -119.86619 40039 ft 551 kts 117°
2026-05-04 02:08 36.87774 -119.82404 40051 ft 525 kts 128°
2026-05-04 02:09 36.85691 -119.78729 40030 ft 512 kts 140°
2026-05-04 02:09 36.83155 -119.75683 40032 ft 500 kts 151°
2026-05-04 02:09 36.80277 -119.73360 40032 ft 486 kts 162°
2026-05-04 02:09 36.77193 -119.71837 40028 ft 471 kts 173°
2026-05-04 02:10 36.74029 -119.71142 40025 ft 457 kts 185°
2026-05-04 02:10 36.70871 -119.71064 40023 ft 455 kts 185°
2026-05-04 02:10 36.67686 -119.70571 40031 ft 467 kts 175°
2026-05-04 02:10 36.64595 -119.69331 40026 ft 479 kts 166°
2026-05-04 02:11 36.58483 -119.65946 40035 ft 479 kts 167°
2026-05-04 02:11 36.52324 -119.62768 40011 ft 480 kts 166°
2026-05-04 02:12 36.46156 -119.59548 40019 ft 481 kts 166°
2026-05-04 02:12 36.39981 -119.56352 40028 ft 482 kts 166°
2026-05-04 02:13 36.33831 -119.53183 40018 ft 482 kts 167°
2026-05-04 02:13 36.27637 -119.50005 40047 ft 483 kts 167°
2026-05-04 02:14 36.21423 -119.46821 40050 ft 483 kts 167°
2026-05-04 02:14 36.15233 -119.43653 40050 ft 483 kts 167°
2026-05-04 02:15 36.09053 -119.40495 40051 ft 483 kts 167°
2026-05-04 02:15 36.02846 -119.37321 40056 ft 483 kts 167°
2026-05-04 02:16 35.96643 -119.34151 40039 ft 482 kts 167°
2026-05-04 02:16 35.90450 -119.30993 40041 ft 482 kts 167°
2026-05-04 02:17 35.84276 -119.27850 40045 ft 483 kts 167°
2026-05-04 02:17 35.78329 -119.23745 40029 ft 504 kts 149°
2026-05-04 02:18 35.75739 -119.20774 40042 ft 516 kts 140°
2026-05-04 02:18 35.73529 -119.17241 40046 ft 528 kts 129°
2026-05-04 02:18 35.71784 -119.13205 40046 ft 539 kts 119°
2026-05-04 02:18 35.70598 -119.08784 40049 ft 549 kts 108°
2026-05-04 02:19 35.69623 -118.99386 40044 ft 555 kts 100°
2026-05-04 02:19 35.68787 -118.90005 40058 ft 555 kts 101°
2026-05-04 02:20 35.67923 -118.80573 40057 ft 556 kts 101°
2026-05-04 02:20 35.67050 -118.71124 40058 ft 556 kts 101°
2026-05-04 02:21 35.66172 -118.61698 40047 ft 555 kts 101°
2026-05-04 02:21 35.65286 -118.52259 40036 ft 554 kts 101°
2026-05-04 02:22 35.64398 -118.42916 40026 ft 554 kts 101°
2026-05-04 02:22 35.63501 -118.33510 39993 ft 554 kts 101°
2026-05-04 02:23 35.62597 -118.24101 39980 ft 554 kts 101°
2026-05-04 02:23 35.61684 -118.14688 39943 ft 555 kts 101°
2026-05-04 02:24 35.60760 -118.05261 39921 ft 556 kts 102°
2026-05-04 02:24 35.59836 -117.95902 39942 ft 556 kts 102°
2026-05-04 02:25 35.58897 -117.86460 39944 ft 557 kts 102°
2026-05-04 02:25 35.57949 -117.77008 39944 ft 557 kts 102°
2026-05-04 02:26 35.56995 -117.67568 39950 ft 558 kts 102°
2026-05-04 02:26 35.56030 -117.58101 39904 ft 558 kts 102°
2026-05-04 02:27 35.55063 -117.48688 39901 ft 560 kts 102°
2026-05-04 02:27 35.54077 -117.39164 39916 ft 563 kts 102°
2026-05-04 02:28 35.53081 -117.29619 39936 ft 565 kts 102°
2026-05-04 02:28 35.52076 -117.20059 39942 ft 566 kts 102°
2026-05-04 02:29 35.51066 -117.10533 39941 ft 567 kts 102°
2026-05-04 02:29 35.50042 -117.00936 39933 ft 568 kts 102°
2026-05-04 02:30 35.49009 -116.91322 39865 ft 569 kts 103°
2026-05-04 02:30 35.47959 -116.81659 39915 ft 572 kts 103°
2026-05-04 02:31 35.47436 -116.76849 39570 ft 570 kts 103°
2026-05-04 02:31 35.46904 -116.71989 38747 ft 576 kts 103°
2026-05-04 02:31 35.46364 -116.67093 38110 ft 582 kts 103°
2026-05-04 02:31 35.45825 -116.62227 37788 ft 587 kts 103°
2026-05-04 02:32 35.45275 -116.57263 37570 ft 590 kts 103°
2026-05-04 02:32 35.44720 -116.52272 37575 ft 594 kts 103°
2026-05-04 02:32 35.44158 -116.47227 37738 ft 594 kts 103°
2026-05-04 02:32 35.43597 -116.42203 37999 ft 594 kts 103°
2026-05-04 02:33 35.43036 -116.37195 38250 ft 594 kts 103°
2026-05-04 02:33 35.42473 -116.32192 38512 ft 593 kts 103°
2026-05-04 02:33 35.41909 -116.27183 38696 ft 590 kts 103°
2026-05-04 02:33 35.41348 -116.22226 38758 ft 586 kts 103°
2026-05-04 02:34 35.40173 -116.12366 38781 ft 585 kts 104°
2026-05-04 02:34 35.39001 -116.02567 38780 ft 586 kts 104°
2026-05-04 02:35 35.37814 -115.92629 38794 ft 585 kts 103°
2026-05-04 02:35 35.36641 -115.82876 38810 ft 581 kts 104°
2026-05-04 02:36 35.35454 -115.73103 38813 ft 580 kts 104°
2026-05-04 02:36 35.34262 -115.63346 38775 ft 580 kts 104°
2026-05-04 02:37 35.33051 -115.53527 38831 ft 591 kts 104°
2026-05-04 02:37 35.31798 -115.43453 38829 ft 595 kts 104°
2026-05-04 02:38 35.30566 -115.33529 38809 ft 594 kts 104°
2026-05-04 02:38 35.29303 -115.23476 38789 ft 592 kts 104°
2026-05-04 02:39 35.28051 -115.13580 38772 ft 593 kts 104°
2026-05-04 02:39 35.26782 -115.03614 38763 ft 593 kts 104°
2026-05-04 02:40 35.25504 -114.93624 38684 ft 594 kts 104°
2026-05-04 02:40 35.24203 -114.83573 38736 ft 600 kts 104°
2026-05-04 02:41 35.22891 -114.73481 38708 ft 601 kts 104°
2026-05-04 02:41 35.21584 -114.63456 38707 ft 600 kts 104°
2026-05-04 02:42 35.20259 -114.53374 38693 ft 602 kts 104°
2026-05-04 02:42 35.18917 -114.43285 38697 ft 601 kts 104°
2026-05-04 02:43 35.17567 -114.33189 38726 ft 601 kts 104°
2026-05-04 02:43 35.16214 -114.23108 38758 ft 605 kts 104°
2026-05-04 02:44 35.14834 -114.12911 38704 ft 609 kts 104°
2026-05-04 02:44 35.13456 -114.02771 38701 ft 608 kts 104°
2026-05-04 02:45 35.12065 -113.92612 38714 ft 608 kts 104°
2026-05-04 02:45 35.10658 -113.82421 38739 ft 609 kts 105°
2026-05-04 02:46 35.09252 -113.72286 38786 ft 609 kts 104°
2026-05-04 02:46 35.07833 -113.62108 38742 ft 609 kts 104°
2026-05-04 02:47 35.06400 -113.51906 38739 ft 611 kts 104°
2026-05-04 02:47 35.04955 -113.41680 38775 ft 612 kts 104°
2026-05-04 02:48 35.03498 -113.31440 38801 ft 612 kts 104°
2026-05-04 02:48 35.02035 -113.21219 38812 ft 612 kts 104°
2026-05-04 02:49 35.00570 -113.11050 38816 ft 612 kts 104°
2026-05-04 02:49 34.99091 -113.00846 38826 ft 612 kts 104°
2026-05-04 02:50 34.97601 -112.90630 38783 ft 612 kts 104°
2026-05-04 02:50 34.96101 -112.80402 38796 ft 612 kts 104°
2026-05-04 02:51 34.94594 -112.70195 38818 ft 614 kts 104°
2026-05-04 02:51 34.93083 -112.60019 38817 ft 614 kts 104°
2026-05-04 02:52 34.91557 -112.49769 38889 ft 615 kts 104°
2026-05-04 02:52 34.90157 -112.39459 38930 ft 617 kts 101°
2026-05-04 02:53 34.89057 -112.29167 38923 ft 617 kts 101°
2026-05-04 02:53 34.87914 -112.18811 38857 ft 617 kts 101°
2026-05-04 02:54 34.86726 -112.08452 38899 ft 618 kts 101°
2026-05-04 02:54 34.85521 -111.98090 38963 ft 619 kts 101°
2026-05-04 02:55 34.83694 -111.82518 38996 ft 620 kts 101°
2026-05-04 02:56 34.82473 -111.72217 39031 ft 618 kts 101°
2026-05-04 02:56 34.81240 -111.61865 38996 ft 618 kts 101°
2026-05-04 02:57 34.79998 -111.51532 38909 ft 617 kts 101°
2026-05-04 02:57 34.78755 -111.41275 38855 ft 618 kts 101°
2026-05-04 02:58 34.77492 -111.30921 38863 ft 618 kts 101°
2026-05-04 02:58 34.76222 -111.20588 38860 ft 619 kts 101°
2026-05-04 02:59 34.74940 -111.10241 38886 ft 618 kts 101°
2026-05-04 02:59 34.73652 -110.99904 38871 ft 617 kts 101°
2026-05-04 03:00 34.72361 -110.89598 38883 ft 617 kts 101°
2026-05-04 03:00 34.71064 -110.79345 38917 ft 617 kts 101°
2026-05-04 03:01 34.69752 -110.69038 38902 ft 617 kts 101°
2026-05-04 03:01 34.68433 -110.58746 38830 ft 618 kts 101°
2026-05-04 03:02 34.67100 -110.48414 38841 ft 619 kts 101°
2026-05-04 03:02 34.65768 -110.38165 38870 ft 619 kts 101°
2026-05-04 03:03 34.64419 -110.27848 38857 ft 619 kts 101°
2026-05-04 03:03 34.63061 -110.17535 38851 ft 618 kts 101°
2026-05-04 03:04 34.61696 -110.07236 38894 ft 616 kts 101°
2026-05-04 03:04 34.60327 -109.96979 38883 ft 615 kts 101°
2026-05-04 03:05 34.58959 -109.86792 38863 ft 614 kts 101°
2026-05-04 03:05 34.57576 -109.76569 38855 ft 614 kts 101°
2026-05-04 03:06 34.56188 -109.66364 38947 ft 614 kts 101°
2026-05-04 03:06 34.54787 -109.56138 39014 ft 613 kts 101°
2026-05-04 03:07 34.53392 -109.46012 39058 ft 613 kts 101°
2026-05-04 03:07 34.51982 -109.35846 39093 ft 611 kts 101°
2026-05-04 03:08 34.50567 -109.25711 39076 ft 610 kts 101°
2026-05-04 03:08 34.49144 -109.15581 39010 ft 608 kts 101°
2026-05-04 03:09 34.47719 -109.05500 38982 ft 606 kts 101°
2026-05-04 03:09 34.46301 -108.95527 38926 ft 604 kts 101°
2026-05-04 03:10 34.44865 -108.85490 38911 ft 603 kts 101°
2026-05-04 03:10 34.43427 -108.75491 38940 ft 601 kts 101°
2026-05-04 03:11 34.42236 -108.67237 38945 ft 599 kts 101°
2026-05-04 03:11 34.40182 -108.55803 38928 ft 596 kts 105°
2026-05-04 03:12 34.38313 -108.46028 38911 ft 595 kts 104°
2026-05-04 03:12 34.36449 -108.36296 38929 ft 593 kts 104°
2026-05-04 03:13 34.34568 -108.26593 38872 ft 592 kts 104°
2026-05-04 03:13 34.32995 -108.18535 38872 ft 592 kts 105°
2026-05-04 03:14 34.30782 -108.07246 38867 ft 593 kts 105°
2026-05-04 03:14 34.28874 -107.97562 38869 ft 593 kts 105°
2026-05-04 03:15 34.27278 -107.89489 38883 ft 593 kts 105°
2026-05-04 03:15 34.25351 -107.79785 38870 ft 593 kts 105°
2026-05-04 03:16 34.23111 -107.68559 38879 ft 592 kts 105°
2026-05-04 03:16 34.21485 -107.60447 38868 ft 591 kts 105°
2026-05-04 03:17 34.19556 -107.50863 38916 ft 596 kts 105°
2026-05-04 03:17 34.17570 -107.41035 38918 ft 602 kts 105°
2026-05-04 03:18 34.15598 -107.31305 38916 ft 595 kts 105°
2026-05-04 03:18 34.13611 -107.21566 38967 ft 598 kts 105°
2026-05-04 03:19 34.11630 -107.11890 39019 ft 598 kts 105°
2026-05-04 03:19 34.09629 -107.02153 39088 ft 596 kts 105°
2026-05-04 03:20 34.07629 -106.92470 39089 ft 595 kts 105°
2026-05-04 03:20 34.05632 -106.82843 38895 ft 594 kts 105°
2026-05-04 03:21 34.03622 -106.73192 38898 ft 594 kts 105°
2026-05-04 03:21 34.01602 -106.63536 38924 ft 594 kts 105°
2026-05-04 03:22 33.99572 -106.53868 38938 ft 594 kts 106°
2026-05-04 03:22 33.97541 -106.44240 38945 ft 594 kts 106°
2026-05-04 03:23 33.95509 -106.34649 38962 ft 594 kts 106°
2026-05-04 03:23 33.93466 -106.25041 38988 ft 592 kts 106°
2026-05-04 03:24 33.91417 -106.15447 38960 ft 591 kts 106°
2026-05-04 03:24 33.89360 -106.05859 38963 ft 591 kts 106°
2026-05-04 03:25 33.87298 -105.96278 39005 ft 590 kts 106°
2026-05-04 03:25 33.85230 -105.86714 39006 ft 590 kts 106°
2026-05-04 03:26 33.83173 -105.77236 38998 ft 590 kts 106°
2026-05-04 03:26 33.81096 -105.67709 38993 ft 589 kts 106°
2026-05-04 03:27 33.79012 -105.58184 38990 ft 587 kts 106°
2026-05-04 03:27 33.76933 -105.48719 38970 ft 585 kts 106°
2026-05-04 03:28 33.74850 -105.39276 38972 ft 584 kts 106°
2026-05-04 03:28 33.72775 -105.29903 38937 ft 585 kts 106°
2026-05-04 03:29 33.70679 -105.20474 38922 ft 584 kts 106°
2026-05-04 03:29 33.68574 -105.11042 38913 ft 584 kts 106°
2026-05-04 03:30 33.66462 -105.01613 38897 ft 584 kts 106°
2026-05-04 03:30 33.64357 -104.92253 38895 ft 585 kts 106°
2026-05-04 03:31 33.62239 -104.82854 38915 ft 583 kts 106°
2026-05-04 03:31 33.60139 -104.73467 38899 ft 582 kts 105°
2026-05-04 03:32 33.58192 -104.64055 38904 ft 581 kts 104°
2026-05-04 03:32 33.56266 -104.54709 38906 ft 581 kts 104°
2026-05-04 03:33 33.54305 -104.45330 38900 ft 581 kts 104°
2026-05-04 03:33 33.52326 -104.35934 38902 ft 581 kts 105°
2026-05-04 03:34 33.50338 -104.26535 38882 ft 582 kts 105°
2026-05-04 03:34 33.48342 -104.17137 38884 ft 583 kts 105°
2026-05-04 03:35 33.46350 -104.07790 38888 ft 583 kts 105°
2026-05-04 03:35 33.44334 -103.98372 38909 ft 583 kts 105°
2026-05-04 03:36 33.42318 -103.88992 38877 ft 583 kts 105°
2026-05-04 03:36 33.40290 -103.79588 38919 ft 582 kts 105°
2026-05-04 03:37 33.38260 -103.70215 38928 ft 582 kts 105°
2026-05-04 03:37 33.36236 -103.60908 38916 ft 582 kts 105°
2026-05-04 03:38 33.34195 -103.51556 38928 ft 581 kts 105°
2026-05-04 03:38 33.32147 -103.42211 38933 ft 581 kts 105°
2026-05-04 03:39 33.30096 -103.32887 38932 ft 580 kts 105°
2026-05-04 03:39 33.28051 -103.23627 38925 ft 579 kts 105°
2026-05-04 03:40 33.25978 -103.14275 38926 ft 579 kts 105°
2026-05-04 03:40 33.23922 -103.05038 38925 ft 578 kts 105°
2026-05-04 03:41 33.21856 -102.95786 38924 ft 578 kts 105°
2026-05-04 03:41 33.19774 -102.86500 38920 ft 578 kts 105°
2026-05-04 03:42 33.17693 -102.77256 38925 ft 578 kts 105°
2026-05-04 03:42 33.15615 -102.68056 38929 ft 577 kts 105°
2026-05-04 03:43 33.13505 -102.58753 38927 ft 577 kts 105°
2026-05-04 03:43 33.11419 -102.49587 38932 ft 577 kts 105°
2026-05-04 03:44 33.09306 -102.40339 38929 ft 577 kts 106°
2026-05-04 03:44 33.07194 -102.31128 38926 ft 576 kts 106°
2026-05-04 03:45 33.05078 -102.21931 38923 ft 576 kts 106°
2026-05-04 03:45 33.02950 -102.12721 38941 ft 576 kts 106°
2026-05-04 03:46 33.00832 -102.03575 38980 ft 576 kts 106°
2026-05-04 03:46 32.98693 -101.94381 39002 ft 577 kts 106°
2026-05-04 03:47 32.96538 -101.85189 39009 ft 577 kts 106°
2026-05-04 03:47 32.94378 -101.75989 39000 ft 576 kts 107°
2026-05-04 03:48 32.92226 -101.66851 38991 ft 576 kts 106°
2026-05-04 03:48 32.90059 -101.57684 38964 ft 575 kts 107°
2026-05-04 03:49 32.87887 -101.48531 38937 ft 575 kts 107°
2026-05-04 03:49 32.85710 -101.39387 38929 ft 574 kts 107°
2026-05-04 03:50 32.83530 -101.30265 38951 ft 574 kts 107°
2026-05-04 03:50 32.81358 -101.21210 38991 ft 574 kts 107°
2026-05-04 03:51 32.79163 -101.12087 39010 ft 573 kts 107°
2026-05-04 03:51 32.76966 -101.02990 39055 ft 573 kts 107°
2026-05-04 03:52 32.74762 -100.93893 39055 ft 573 kts 107°
2026-05-04 03:52 32.72566 -100.84863 39048 ft 573 kts 107°
2026-05-04 03:53 32.70349 -100.75778 39023 ft 573 kts 107°
2026-05-04 03:53 32.68132 -100.66722 38984 ft 573 kts 107°
2026-05-04 03:54 32.65891 -100.57601 39015 ft 574 kts 107°
2026-05-04 03:54 32.63647 -100.48500 39051 ft 576 kts 107°
2026-05-04 03:55 32.61402 -100.39424 39064 ft 576 kts 107°
2026-05-04 03:55 32.59141 -100.30316 38976 ft 577 kts 107°
2026-05-04 03:56 32.56869 -100.21192 38984 ft 577 kts 107°
2026-05-04 03:56 32.54601 -100.12120 39003 ft 577 kts 107°
2026-05-04 03:57 32.52317 -100.03011 39018 ft 577 kts 107°
2026-05-04 03:57 32.50023 -99.93892 39034 ft 577 kts 107°
2026-05-04 03:58 32.46583 -99.80230 39008 ft 579 kts 108°
2026-05-04 03:58 32.44289 -99.71063 39051 ft 581 kts 108°
2026-05-04 03:59 32.42006 -99.61966 39065 ft 582 kts 108°
2026-05-04 03:59 32.39685 -99.52759 39064 ft 584 kts 108°
2026-05-04 04:00 32.37359 -99.43570 39053 ft 584 kts 108°
2026-05-04 04:00 32.35019 -99.34355 39027 ft 585 kts 108°
2026-05-04 04:01 32.32688 -99.25208 39028 ft 585 kts 108°
2026-05-04 04:01 32.30335 -99.16003 39030 ft 585 kts 108°
2026-05-04 04:02 32.27978 -99.06815 39037 ft 583 kts 107°
2026-05-04 04:02 32.25617 -98.97643 39031 ft 583 kts 108°
2026-05-04 04:03 32.23255 -98.88495 39026 ft 582 kts 108°
2026-05-04 04:03 32.20903 -98.79418 39030 ft 582 kts 108°
2026-05-04 04:04 32.18532 -98.70296 39055 ft 581 kts 108°
2026-05-04 04:04 32.16153 -98.61174 39051 ft 581 kts 108°
2026-05-04 04:05 32.13767 -98.52054 39054 ft 581 kts 108°
2026-05-04 04:05 32.11396 -98.43020 39058 ft 581 kts 108°
2026-05-04 04:06 32.08996 -98.33908 39093 ft 582 kts 108°
2026-05-04 04:06 32.06591 -98.24809 39094 ft 581 kts 107°
2026-05-04 04:07 32.04183 -98.15719 39092 ft 581 kts 107°
2026-05-04 04:07 32.01780 -98.06680 39085 ft 581 kts 107°
2026-05-04 04:08 31.99357 -97.97591 39065 ft 581 kts 108°
2026-05-04 04:08 31.96919 -97.88523 39037 ft 582 kts 108°
2026-05-04 04:09 31.94474 -97.79425 39041 ft 583 kts 108°
2026-05-04 04:09 31.92025 -97.70333 39050 ft 583 kts 107°
2026-05-04 04:10 31.89565 -97.61238 39061 ft 583 kts 108°
2026-05-04 04:10 31.87109 -97.52191 39049 ft 585 kts 108°
2026-05-04 04:11 31.84632 -97.43096 39060 ft 584 kts 107°
2026-05-04 04:11 31.82148 -97.34000 39072 ft 584 kts 107°
2026-05-04 04:12 31.79661 -97.24917 39073 ft 584 kts 107°
2026-05-04 04:12 31.77180 -97.15890 39072 ft 584 kts 107°
2026-05-04 04:13 31.74677 -97.06814 39076 ft 584 kts 107°
2026-05-04 04:13 31.72171 -96.97750 39075 ft 584 kts 107°
2026-05-04 04:14 31.69654 -96.88678 39076 ft 583 kts 107°
2026-05-04 04:14 31.67134 -96.79622 39077 ft 584 kts 107°
2026-05-04 04:15 31.64628 -96.70642 39075 ft 584 kts 107°
2026-05-04 04:15 31.62095 -96.61597 39058 ft 583 kts 107°
2026-05-04 04:16 31.59557 -96.52561 39089 ft 583 kts 107°
2026-05-04 04:16 31.57015 -96.43534 39097 ft 583 kts 107°
2026-05-04 04:17 31.54481 -96.34564 39089 ft 584 kts 107°
2026-05-04 04:17 31.51918 -96.25519 39092 ft 584 kts 107°
2026-05-04 04:18 31.49355 -96.16504 39097 ft 584 kts 107°
2026-05-04 04:18 31.46780 -96.07473 39115 ft 584 kts 108°
2026-05-04 04:19 31.44210 -95.98486 39098 ft 585 kts 108°
2026-05-04 04:19 31.41624 -95.89471 39101 ft 585 kts 108°
2026-05-04 04:20 31.39027 -95.80441 39070 ft 585 kts 108°
2026-05-04 04:20 31.36425 -95.71428 39104 ft 584 kts 108°
2026-05-04 04:21 31.33821 -95.62429 39119 ft 585 kts 108°
2026-05-04 04:21 31.31226 -95.53485 39125 ft 585 kts 108°
2026-05-04 04:22 31.28604 -95.44481 39128 ft 585 kts 108°
2026-05-04 04:22 31.25976 -95.35478 39128 ft 585 kts 108°
2026-05-04 04:23 31.23340 -95.26478 39132 ft 586 kts 108°
2026-05-04 04:23 31.20697 -95.17480 39127 ft 586 kts 108°
2026-05-04 04:24 31.18063 -95.08534 39119 ft 586 kts 108°
2026-05-04 04:24 31.15404 -94.99536 39121 ft 586 kts 108°
2026-05-04 04:25 31.12748 -94.90573 39122 ft 585 kts 108°
2026-05-04 04:25 31.10084 -94.81604 39124 ft 585 kts 108°
2026-05-04 04:26 31.07414 -94.72638 39121 ft 585 kts 108°
2026-05-04 04:26 31.04742 -94.63682 39116 ft 585 kts 108°
2026-05-04 04:27 31.02061 -94.54795 39130 ft 585 kts 108°
2026-05-04 04:27 30.99360 -94.45848 39125 ft 585 kts 108°
2026-05-04 04:28 30.96654 -94.36901 39126 ft 585 kts 108°
2026-05-04 04:28 30.93940 -94.27954 39121 ft 585 kts 108°
2026-05-04 04:29 30.91245 -94.19095 39157 ft 585 kts 108°
2026-05-04 04:29 30.88526 -94.10183 39117 ft 583 kts 108°
2026-05-04 04:30 30.85809 -94.01302 39131 ft 582 kts 108°
2026-05-04 04:30 30.83088 -93.92430 39131 ft 582 kts 108°
2026-05-04 04:31 30.80359 -93.83559 39127 ft 582 kts 108°
2026-05-04 04:31 30.77643 -93.74755 39141 ft 582 kts 108°
2026-05-04 04:32 30.74897 -93.65881 39140 ft 582 kts 108°
2026-05-04 04:32 30.72152 -93.57029 39147 ft 582 kts 108°
2026-05-04 04:33 30.69404 -93.48195 39151 ft 582 kts 109°
2026-05-04 04:33 30.66662 -93.39404 39145 ft 582 kts 109°
2026-05-04 04:34 30.63899 -93.30571 39149 ft 582 kts 109°
2026-05-04 04:34 30.61125 -93.21727 39148 ft 582 kts 109°
2026-05-04 04:35 30.58348 -93.12896 39162 ft 583 kts 109°
2026-05-04 04:35 30.55567 -93.04077 39195 ft 583 kts 109°
2026-05-04 04:36 30.52796 -92.95313 39188 ft 583 kts 109°
2026-05-04 04:36 30.50000 -92.86491 39182 ft 582 kts 109°
2026-05-04 04:37 30.44394 -92.68881 39172 ft 582 kts 109°
2026-05-04 04:38 30.41604 -92.60152 39168 ft 582 kts 109°
2026-05-04 04:38 30.38793 -92.51379 39182 ft 581 kts 109°
2026-05-04 04:39 30.35978 -92.42621 39148 ft 580 kts 109°
2026-05-04 04:39 30.33158 -92.33864 39155 ft 580 kts 109°
2026-05-04 04:40 30.30339 -92.25131 39171 ft 580 kts 109°
2026-05-04 04:40 30.27511 -92.16454 39165 ft 580 kts 109°
2026-05-04 04:41 30.24665 -92.07721 39154 ft 579 kts 109°
2026-05-04 04:41 30.21822 -91.99017 39165 ft 579 kts 109°
2026-05-04 04:42 30.18965 -91.90292 39185 ft 579 kts 109°
2026-05-04 04:42 30.16133 -91.81669 39168 ft 579 kts 109°
2026-05-04 04:43 30.13271 -91.72980 39143 ft 578 kts 110°
2026-05-04 04:43 30.10410 -91.64313 39151 ft 577 kts 110°
2026-05-04 04:44 30.07550 -91.55673 39139 ft 577 kts 109°
2026-05-04 04:44 30.04697 -91.47072 39170 ft 577 kts 110°
2026-05-04 04:45 30.01820 -91.38425 39169 ft 577 kts 110°
2026-05-04 04:47 29.95002 -91.07701 39171 ft 556 kts 73°
2026-05-04 04:47 29.96704 -90.99134 39171 ft 552 kts 70°
2026-05-04 04:48 29.98410 -90.90507 39176 ft 552 kts 70°
2026-05-04 04:49 30.02587 -90.68889 39175 ft 552 kts 71°
2026-05-04 04:49 30.04233 -90.60291 39176 ft 552 kts 71°
2026-05-04 04:50 30.05883 -90.51638 39173 ft 552 kts 71°
2026-05-04 04:50 30.07527 -90.42987 39169 ft 552 kts 71°
2026-05-04 04:51 30.09166 -90.34332 39162 ft 552 kts 71°
2026-05-04 04:51 30.10786 -90.25745 39162 ft 552 kts 71°
2026-05-04 04:52 30.12416 -90.17068 39177 ft 552 kts 71°
2026-05-04 04:52 30.14033 -90.08427 39175 ft 552 kts 71°
2026-05-04 04:53 30.15650 -89.99755 39157 ft 552 kts 71°
2026-05-04 04:53 30.17248 -89.91148 39145 ft 552 kts 71°
2026-05-04 04:54 30.18851 -89.82483 39142 ft 552 kts 71°
2026-05-04 04:54 30.20451 -89.73804 39142 ft 552 kts 71°
2026-05-04 04:55 30.22043 -89.65131 39145 ft 552 kts 71°
2026-05-04 04:55 30.23629 -89.56459 39147 ft 552 kts 71°
2026-05-04 04:56 30.25202 -89.47825 39147 ft 552 kts 71°
2026-05-04 04:56 30.26779 -89.39127 39148 ft 552 kts 71°
2026-05-04 04:57 30.28350 -89.30433 39148 ft 553 kts 71°
2026-05-04 04:57 30.29916 -89.21734 39170 ft 553 kts 71°
2026-05-04 04:58 30.31479 -89.13017 39165 ft 553 kts 71°
2026-05-04 04:58 30.33026 -89.04352 39140 ft 553 kts 71°
2026-05-04 04:59 30.34578 -88.95622 39138 ft 553 kts 71°
2026-05-04 04:59 30.36121 -88.86910 39131 ft 553 kts 71°
2026-05-04 05:00 30.37661 -88.78175 39139 ft 553 kts 72°
2026-05-04 05:01 30.39947 -88.65153 39184 ft 554 kts 71°
2026-05-04 05:01 30.41474 -88.56406 39177 ft 553 kts 72°
2026-05-04 05:02 30.42993 -88.47667 39179 ft 552 kts 72°
2026-05-04 05:02 30.44502 -88.38954 39171 ft 552 kts 72°
2026-05-04 05:03 30.46007 -88.30230 39167 ft 551 kts 72°
2026-05-04 05:04 30.48978 -88.12888 39155 ft 550 kts 72°
2026-05-04 05:04 30.50459 -88.04198 39177 ft 550 kts 72°
2026-05-04 05:06 30.56310 -87.69475 39157 ft 549 kts 73°
2026-05-04 05:07 30.57764 -87.60757 39148 ft 549 kts 73°
2026-05-04 05:07 30.59209 -87.52050 39143 ft 549 kts 73°
2026-05-04 05:09 30.65634 -87.12882 39163 ft 550 kts 74°
2026-05-04 05:10 30.67039 -87.04216 39165 ft 550 kts 74°
2026-05-04 05:10 30.68450 -86.95468 39157 ft 550 kts 74°
2026-05-04 05:11 30.69853 -86.86742 39157 ft 551 kts 75°
2026-05-04 05:11 30.71253 -86.77985 39159 ft 551 kts 75°
2026-05-04 05:12 30.72647 -86.69229 39169 ft 551 kts 75°
2026-05-04 05:12 30.74024 -86.60537 39174 ft 550 kts 75°
2026-05-04 05:13 30.75404 -86.51802 39167 ft 551 kts 75°
2026-05-04 05:13 30.76782 -86.43025 39166 ft 551 kts 75°
2026-05-04 05:14 30.78150 -86.34273 39166 ft 551 kts 75°
2026-05-04 05:14 30.79510 -86.25552 39162 ft 551 kts 75°
2026-05-04 05:15 30.80835 -86.16762 39154 ft 553 kts 78°
2026-05-04 05:15 30.81303 -86.07802 39137 ft 558 kts 89°
2026-05-04 05:16 30.81028 -85.98821 39143 ft 559 kts 89°
2026-05-04 05:16 30.80797 -85.89766 39154 ft 560 kts 89°
2026-05-04 05:17 30.80553 -85.80715 39154 ft 560 kts 89°
2026-05-04 05:17 30.80296 -85.71657 39172 ft 561 kts 89°
2026-05-04 05:18 30.80032 -85.62593 39180 ft 561 kts 90°
2026-05-04 05:18 30.79762 -85.53583 39180 ft 561 kts 90°
2026-05-04 05:19 30.79485 -85.44525 39163 ft 561 kts 90°
2026-05-04 05:19 30.79202 -85.35441 39146 ft 561 kts 90°
2026-05-04 05:20 30.78912 -85.26378 39151 ft 561 kts 90°
2026-05-04 05:20 30.78615 -85.17302 39152 ft 562 kts 90°
2026-05-04 05:21 30.78314 -85.08282 39153 ft 562 kts 90°
2026-05-04 05:21 30.78007 -84.99213 39146 ft 562 kts 91°
2026-05-04 05:22 30.77601 -84.90130 39140 ft 563 kts 97°
2026-05-04 05:22 30.75649 -84.81352 39136 ft 562 kts 114°
2026-05-04 05:23 30.71942 -84.73408 39130 ft 558 kts 124°
2026-05-04 05:23 30.67937 -84.65747 39153 ft 559 kts 124°
2026-05-04 05:24 30.63909 -84.58023 39147 ft 559 kts 124°
2026-05-04 05:24 30.59874 -84.50318 39143 ft 559 kts 124°
2026-05-04 05:25 30.55824 -84.42607 39143 ft 559 kts 124°
2026-05-04 05:25 30.51807 -84.34973 39146 ft 558 kts 124°
2026-05-04 05:26 30.47756 -84.27287 39147 ft 558 kts 125°
2026-05-04 05:26 30.43710 -84.19624 39149 ft 557 kts 125°
2026-05-04 05:28 30.21624 -83.97192 39122 ft 527 kts 158°
2026-05-04 05:29 30.15257 -83.92967 39127 ft 528 kts 158°
2026-05-04 05:29 30.09956 -83.89459 39164 ft 527 kts 158°
2026-05-04 05:31 29.84626 -83.72766 39137 ft 524 kts 159°
2026-05-04 05:32 29.78295 -83.68610 39130 ft 524 kts 159°
2026-05-04 05:33 29.67782 -83.61722 39125 ft 524 kts 159°
2026-05-04 05:33 29.62517 -83.58275 39112 ft 523 kts 159°
2026-05-04 05:34 29.56175 -83.54135 39119 ft 525 kts 159°
2026-05-04 05:34 29.49834 -83.50000 39140 ft 525 kts 160°
2026-05-04 05:35 29.43481 -83.45862 39144 ft 525 kts 160°
2026-05-04 05:35 29.37128 -83.41730 39084 ft 525 kts 160°
2026-05-04 05:36 29.30841 -83.37646 39129 ft 524 kts 160°
2026-05-04 05:36 29.24460 -83.33647 39126 ft 517 kts 165°
2026-05-04 05:37 29.17917 -83.30333 39115 ft 515 kts 166°
2026-05-04 05:37 29.11354 -83.27011 39117 ft 515 kts 166°
2026-05-04 05:38 29.01599 -83.22067 39112 ft 514 kts 167°
2026-05-04 05:38 28.95051 -83.18758 39109 ft 514 kts 167°
2026-05-04 05:39 28.85241 -83.13807 39130 ft 513 kts 167°
2026-05-04 05:40 28.75500 -83.08900 39120 ft 511 kts 167°
2026-05-04 05:40 28.69003 -83.05633 39105 ft 511 kts 167°
2026-05-04 05:41 28.62497 -83.02368 39102 ft 510 kts 167°
2026-05-04 05:41 28.56049 -82.99136 39104 ft 510 kts 167°
2026-05-04 05:42 28.49562 -82.95888 39103 ft 510 kts 167°
2026-05-04 05:42 28.43075 -82.92642 39098 ft 508 kts 168°
2026-05-04 05:43 28.36615 -82.89417 39104 ft 508 kts 168°
2026-05-04 05:45 28.10751 -82.76541 39120 ft 506 kts 169°
2026-05-04 05:47 27.84838 -82.68532 39100 ft 471 kts 183°
2026-05-04 05:47 27.78386 -82.67259 39087 ft 470 kts 183°
2026-05-04 05:48 27.71948 -82.65992 39081 ft 470 kts 184°
2026-05-04 05:48 27.65517 -82.64728 39078 ft 469 kts 184°
2026-05-04 05:49 27.59129 -82.63474 39076 ft 469 kts 184°
2026-05-04 05:49 27.52687 -82.62164 39077 ft 474 kts 181°
2026-05-04 05:51 27.26837 -82.54577 39034 ft 480 kts 179°
2026-05-04 05:52 27.20383 -82.52685 39097 ft 479 kts 179°
2026-05-04 05:52 27.13941 -82.50802 39076 ft 479 kts 179°
2026-05-04 05:54 26.88535 -82.41167 39083 ft 517 kts 158°
2026-05-04 05:55 26.85598 -82.38663 39059 ft 530 kts 152°
2026-05-04 05:55 26.82824 -82.35951 39065 ft 531 kts 152°
2026-05-04 05:55 26.77265 -82.30587 39060 ft 530 kts 152°
2026-05-04 05:56 26.71658 -82.25221 39057 ft 530 kts 152°
2026-05-04 05:56 26.68857 -82.22542 38923 ft 528 kts 152°
2026-05-04 05:56 26.66094 -82.19895 38661 ft 523 kts 153°
2026-05-04 05:57 26.63330 -82.17256 38113 ft 522 kts 152°
2026-05-04 05:57 26.60560 -82.14620 37381 ft 524 kts 151°
2026-05-04 05:57 26.57777 -82.11974 36587 ft 526 kts 150°
2026-05-04 05:57 26.55030 -82.09360 35847 ft 527 kts 150°
2026-05-04 05:58 26.52242 -82.06704 35069 ft 528 kts 149°
2026-05-04 05:58 26.49484 -82.03980 34343 ft 530 kts 147°
2026-05-04 05:58 26.46732 -82.01180 33549 ft 530 kts 146°
2026-05-04 05:58 26.44050 -81.98440 32713 ft 529 kts 146°
2026-05-04 05:59 26.41333 -81.95678 31904 ft 525 kts 146°
2026-05-04 05:59 26.38642 -81.92955 31146 ft 521 kts 146°
2026-05-04 05:59 26.35963 -81.90257 30410 ft 517 kts 146°
2026-05-04 05:59 26.33307 -81.87587 29565 ft 513 kts 146°
2026-05-04 06:00 26.30657 -81.84929 28730 ft 509 kts 145°
2026-05-04 06:00 26.28038 -81.82302 27945 ft 504 kts 145°
2026-05-04 06:00 26.25491 -81.79636 27195 ft 503 kts 139°
2026-05-04 06:00 26.23305 -81.76577 26459 ft 506 kts 128°
2026-05-04 06:01 26.21602 -81.73207 25747 ft 506 kts 119°
2026-05-04 06:01 26.20094 -81.69641 25034 ft 500 kts 119°
2026-05-04 06:03 26.10021 -81.46494 20130 ft 446 kts 121°
2026-05-04 06:03 26.08700 -81.43470 19522 ft 438 kts 121°
2026-05-04 06:05 25.99870 -81.23240 15267 ft 398 kts 120°
2026-05-04 06:05 25.97470 -81.17749 14136 ft 391 kts 120°
2026-05-04 06:05 25.96292 -81.15058 13575 ft 387 kts 120°
2026-05-04 06:06 25.95114 -81.12368 12967 ft 383 kts 120°
2026-05-04 06:06 25.93948 -81.09708 12393 ft 380 kts 120°
2026-05-04 06:06 25.92812 -81.07119 11855 ft 377 kts 119°
2026-05-04 06:06 25.91664 -81.04503 11292 ft 374 kts 119°
2026-05-04 06:07 25.90551 -81.01923 10763 ft 371 kts 117°
2026-05-04 06:07 25.89535 -80.99295 10295 ft 367 kts 114°
2026-05-04 06:07 25.88568 -80.96679 10100 ft 366 kts 114°
2026-05-04 06:07 25.87600 -80.94076 10046 ft 366 kts 115°
2026-05-04 06:08 25.86612 -80.91458 10052 ft 367 kts 115°
2026-05-04 06:08 25.85621 -80.88864 10038 ft 369 kts 115°
2026-05-04 06:08 25.84624 -80.86264 10032 ft 358 kts 115°
2026-05-04 06:08 25.83674 -80.83785 10032 ft 340 kts 115°
2026-05-04 06:09 25.82782 -80.81464 10033 ft 326 kts 115°
2026-05-04 06:09 25.81900 -80.79173 10034 ft 322 kts 115°
2026-05-04 06:11 25.77081 -80.62759 9621 ft 328 kts 88°
2026-05-04 06:11 25.77203 -80.60233 9174 ft 328 kts 86°
2026-05-04 06:13 25.78276 -80.41208 2391 ft 359 kts 86°
2026-05-04 06:14 25.78749 -80.27296 1194 ft 265 kts 87°
2026-05-04 06:14 25.78937 -80.25156 1664 ft 289 kts 78°
2026-05-04 06:15 25.79611 -80.23029 2231 ft 304 kts 63°
2026-05-04 06:15 25.80847 -80.21039 2834 ft 316 kts 46°
2026-05-04 06:15 25.82617 -80.19569 3454 ft 323 kts 25°
2026-05-04 06:15 25.84681 -80.18921 4036 ft 306 kts
2026-05-04 06:16 25.86732 -80.19181 4648 ft 288 kts 339°
2026-05-04 06:16 25.88441 -80.20252 4910 ft 285 kts 315°
2026-05-04 06:16 25.89551 -80.22061 4945 ft 288 kts 288°
2026-05-04 06:16 25.89846 -80.24265 4958 ft 295 kts 272°
2026-05-04 06:17 25.89827 -80.26591 4959 ft 304 kts 268°
2026-05-04 06:17 25.89661 -80.28952 4994 ft 311 kts 264°
2026-05-04 06:17 25.89413 -80.31353 5014 ft 317 kts 263°
2026-05-04 06:17 25.89166 -80.33800 5092 ft 320 kts 264°
2026-05-04 06:18 25.88957 -80.36232 5161 ft 316 kts 265°
2026-05-04 06:18 25.88784 -80.38650 5218 ft 305 kts 266°
2026-05-04 06:18 25.88654 -80.40935 5283 ft 296 kts 267°
2026-05-04 06:20 25.84089 -80.52862 5783 ft 251 kts 176°
2026-05-04 06:20 25.82483 -80.52115 5786 ft 254 kts 148°
2026-05-04 06:21 25.79793 -80.44869 4390 ft 292 kts 94°
2026-05-04 06:21 25.79614 -80.42615 3760 ft 292 kts 100°
2026-05-04 06:22 25.79235 -80.40439 3239 ft 280 kts 103°
2026-05-04 06:22 25.78823 -80.38406 2621 ft 256 kts 102°
2026-05-04 06:25 25.78821 -80.29201 28 ft 2 kts 261°
2026-05-04 06:25 25.78815 -80.29240 26 ft 8 kts 262°
2026-05-04 06:26 25.78808 -80.29312 27 ft 11 kts 270°
2026-05-04 06:26 25.78807 -80.29405 27 ft 13 kts 268°
2026-05-04 06:26 25.78803 -80.29518 27 ft 16 kts 267°
2026-05-04 06:26 25.78797 -80.29652 27 ft 19 kts 267°
2026-05-04 06:27 25.78790 -80.30163 26 ft 4 kts 281°
2026-05-04 06:28 25.78804 -80.30216 28 ft 10 kts 293°
2026-05-04 06:28 25.78838 -80.30305 28 ft 14 kts 289°
2026-05-04 06:28 25.78847 -80.30421 26 ft 17 kts 272°
2026-05-04 06:28 25.78865 -80.30536 29 ft 11 kts 332°
2026-05-04 06:29 25.78952 -80.30570 28 ft 14 kts 354°
2026-05-04 06:29 25.79058 -80.30562 25 ft 12 kts 23°
2026-05-04 06:29 25.79081 -80.30536 26 ft 0 kts 74°
2026-05-04 06:29 25.79083 -80.30520 27 ft 4 kts 95°
2026-05-04 06:30 25.79082 -80.30504 26 ft 0 kts 91°